Hourly Weather Roundup
Issued by NWS Central Illinois

Home | Current Version | Previous Version | Text Only | Print | Product List | Glossary On
Versions: 1 2 3 4 5 6 7 8 9 10 11 12 13 14 15 16 17 18 19 20 21 22 23 24 25 26 27 28 29 30 31 32 33 34 35 36 37 38 39 40 41 42 43 44 45 46 47 48 49 50
000
NZUS43 KILX 210510
HWRILX

AREA WEATHER ROUNDUP
NATIONAL WEATHER SERVICE, LINCOLN IL
1200 AM CDT THU AUG 21 2014


CITY           SKY/WX    TMP DP  RH WIND       PRES   REMARKS
BLOOMINGTON    MOCLDY    71  68  90 S10       29.98S
CHAMPAIGN      MOCLDY    71  69  93 S6        29.99R
DECATUR        PTCLDY    75  69  81 S10       29.96F
FLORA          TSTM      70  68  95 W13G35    30.10R
GALESBURG      CLEAR     73  71  95 SE5       29.93S
JACKSONVILLE   CLEAR     76  70  80 S9        29.95S
LACON          MOCLDY    72  69  91 E8        29.94F
LAWRENCEVILLE  MOCLDY    72  69  90 S7        30.01F
LITCHFIELD     MOCLDY    70  68  94 S6        29.97F
$$


CITY           SKY/WX    TMP DP  RH WIND       PRES   REMARKS
LINCOLN        PTCLDY    74  70  89 S7        29.93F
MACOMB         CLEAR     73  72  98 SE6       29.95S
MATTOON        MOCLDY    74  69  85 S9        30.00R
MT CARMEL AP   MOCLDY    72  70  94 CALM      30.02R
OLNEY-NOBLE AP TSTM      73  68  83 W14G28    30.05R
PARIS          MOCLDY    71  71 100 S3        29.99F THUNDER
PEORIA         PTCLDY    75  70  84 S6        29.95R
PONTIAC        CLOUDY    72  70  94 E3        29.97F
RANTOUL        CLOUDY    74  69  85 SE3       29.99S
ROBINSON       MOCLDY    74  71  92 S6        30.01F
SPRINGFIELD    PTCLDY    75  71  87 S8        29.95F
TAYLORVILLE    PTCLDY    72  70  94 S9        29.96F
$$

...REGIONAL REPORTS...


CITY           SKY/WX    TMP DP  RH WIND       PRES   REMARKS
CHICAGO O`HARE CLOUDY    75  65  70 CALM      29.95S
KANKAKEE       CLOUDY    69  68  96 CALM      29.99S
MOLINE         CLEAR     71  69  93 E7        29.92S
MOUNT VERNON   CLOUDY    75  66  73 N7        30.03R
PITTSFIELD     PTCLDY    74  69  82 S6        29.96R
QUINCY         CLEAR     76  71  85 S10       29.93R
ROCKFORD       MOCLDY    71  67  87 E3        29.96S
$$


CITY           SKY/WX    TMP DP  RH WIND       PRES   REMARKS
BURLINGTON     CLEAR     76  74  93 S5        29.91R
CEDAR RAPIDS   CLEAR     68  68 100 E5        29.91R
DES MOINES     PTCLDY    77  73  87 SE6       29.85R
KIRKSVILLE     CLEAR     78  72  81 S8        29.92R HX  80
OTTUMWA        CLEAR     73  72  96 SE5       29.89R
ST LOUIS       PTCLDY    76  72  87 E6        29.96F
$$


CITY           SKY/WX    TMP DP  RH WIND       PRES   REMARKS
TERRE HAUTE    MOCLDY    71  68  90 CALM      30.00F
EVANSVILLE     PTCLDY    77  69  76 S3        30.03S
INDIANAPOLIS   CLOUDY    72  68  87 SW5       30.02R
LAFAYETTE      CLOUDY    70  68  93 CALM      30.01R
MADISON        MOCLDY    71  67  87 NE3       29.94R
MILWAUKEE      MOCLDY    68  64  87 E5        29.96R
$$





USA.gov is the U.S. government's official web portal to all federal, state and local government web resources and services.